Home > Weather > Heraklion > Past weeks

Flag for Greece Past Weather in Heraklion, Crete, Greece — Yesterday and Last 2 Weeks

Now
73 °F

Clear.


Feels Like: 75 °F
Forecast: 69 / 81 °F
Wind: 6 mph from South

Location: Heraklion Airport

Current Time: Jun 25, 2016 at 4:51:59 AM

Latest Report: Jun 25, 2016 at 3:50 AM


Visibility: 10 mi

Pressure: 29.71 "Hg

Humidity: 74%

Dew Point: 64 °F

Location of HeraklionLocation

Past Weather in Heraklion — Graph

°F

Heraklion Temperature Yesterday

Maximum temperature yesterday: 84 °F (at 1:50 PM)
Minimum temperature yesterday: 73 °F (at 5:50 AM)
Average temperature yesterday: 80 °F

High & Low Weather Summary for the Past Weeks

 TemperatureHumidityPressure
High93 °F (Jun 19, 10:50 AM)94% (Jun 14, 6:20 AM)30.01 "Hg (Jun 14, 6:20 AM)
Low61 °F (Jun 10, 3:20 AM)18% (Jun 13, 1:50 PM)29.56 "Hg (Jun 14, 3:50 AM)
Average78 °F63%29.86 "Hg
* Reported Jun 10 3:20 AM — Jun 25 3:50 AM, Heraklion, Weather by CustomWeather, © 2016

Note: Actual official high and low records may vary slightly from our data, if they occured in-between our weather recording intervals... More about our weather records

Advertising

Heraklion Weather History for the Previous 24 Hours

Scroll right to see more
 ConditionsComfort  
Time TempWeatherWind HumidityBarometerVisibility
3:50 AM
Sat, Jun 25
73 °FClear.6 mph74%29.71 "Hg10 mi
3:20 AM73 °FClear.5 mph74%29.74 "Hg10 mi
2:50 AM73 °FClear.6 mph74%29.74 "Hg10 mi
2:20 AM75 °FClear.5 mph65%29.74 "Hg10 mi
1:50 AM75 °FClear.3 mph65%29.74 "Hg10 mi
1:20 AM75 °FClear.2 mph65%29.74 "Hg10 mi
12:50 AM75 °FClear.3 mph65%29.74 "Hg10 mi
12:20 AM75 °FClear.3 mph74%29.77 "Hg10 mi
11:50 PM
Fri, Jun 24
75 °FClear.2 mph74%29.77 "Hg10 mi
11:20 PM77 °FClear.No wind69%29.77 "Hg10 mi
10:50 PM77 °FClear.No wind69%29.77 "Hg10 mi
10:20 PM79 °FClear.2 mph70%29.77 "Hg10 mi
9:50 PM79 °FClear.2 mph70%29.77 "Hg10 mi
9:20 PM81 °FSunny.2 mph70%29.77 "Hg10 mi
8:50 PM81 °FSunny.1 mph70%29.77 "Hg10 mi
8:20 PM81 °FSunny.2 mph74%29.77 "Hg10 mi
7:50 PM81 °FSunny.2 mph74%29.77 "Hg10 mi
7:20 PM82 °FSunny.2 mph70%29.77 "Hg10 mi
6:50 PM82 °FSunny.2 mph70%29.77 "Hg10 mi
6:20 PM84 °FSunny.3 mph70%29.77 "Hg10 mi
5:50 PM84 °FSunny.3 mph70%29.80 "Hg10 mi
5:20 PM84 °FSunny.6 mph70%29.80 "Hg10 mi
4:50 PM84 °FSunny.6 mph70%29.80 "Hg10 mi
4:20 PM84 °FSunny.7 mph70%29.80 "Hg10 mi
3:50 PM84 °FSunny.6 mph70%29.80 "Hg10 mi
3:20 PM84 °FSunny.6 mph70%29.80 "Hg10 mi
2:50 PM84 °FSunny.6 mph70%29.80 "Hg10 mi
2:20 PM84 °FSunny.5 mph66%29.80 "Hg10 mi
1:50 PM84 °FSunny.7 mph66%29.80 "Hg10 mi
1:20 PM82 °FSunny.7 mph70%29.80 "Hg10 mi
12:50 PM82 °FSunny.12 mph70%29.80 "Hg10 mi
12:20 PM82 °FSunny.13 mph70%29.80 "Hg10 mi
11:50 AM82 °FSunny.14 mph70%29.80 "Hg10 mi
11:20 AM82 °FSunny.18 mph70%29.80 "Hg10 mi
10:50 AM82 °FSunny.21 mph70%29.80 "Hg10 mi
10:20 AM82 °FSunny.20 mph70%29.80 "Hg10 mi
9:50 AM82 °FSunny.20 mph70%29.80 "Hg10 mi
9:20 AM81 °FSunny.17 mph74%29.80 "Hg10 mi
8:50 AM81 °FSunny.18 mph74%29.80 "Hg10 mi
8:20 AM82 °FSunny.16 mph70%29.80 "Hg10 mi
7:50 AM82 °FSunny.9 mph66%29.80 "Hg10 mi
7:20 AM75 °FSunny.3 mph74%29.80 "Hg10 mi
6:50 AM75 °FClear.3 mph74%29.80 "Hg10 mi
6:20 AM73 °FClear.6 mph74%29.80 "Hg10 mi
5:50 AM73 °FClear.6 mph74%29.80 "Hg10 mi
5:20 AM75 °FClear.6 mph74%29.80 "Hg10 mi
4:50 AM75 °FClear.7 mph74%29.80 "Hg10 mi
4:20 AM75 °FClear.7 mph74%29.80 "Hg10 mi
Weather by CustomWeather, © 2016

See weather overviewHow to use our weather pages